Probability
0 0 0 0 0 0 0 0 0 0 0 0 0 0 0 0 0 0 0 0 0 0 0 0 0 0 0 0 0 0 0 0 0 0 0 0 0 0 1 1 1 0 0 0
0 0 0 0 0 0 0 0 0 0 0 0 0 0 0 0 0 0 0 0 0 0 0 0 0 0 0 0 0 0 0 0 0 0 0 0 0 0 0 0 0 0 0 0
0 0 0 0 0 0 0 0 0 0 0 0 0 0 0 0 0 0 0 0 0 0 0 0 0 0 0 0 0 0 0 0 0 0 0 0 0 0 0 0 0 0 0 0
0 0 0 0 0 0 0 0 0 0 0 0 0 0 0 0 0 0 0 0 0 0 0 0 0 0 0 0 0 0 0 0 0 0 0 0 0 0 0 0 0 0 0 0
0 0 0 0 0 0 0 0 0 0 0 0 0 0 0 0 0 0 0 0 0 0 0 0 0 0 0 0 0 0 0 0 0 0 0 0 0 0 0 0 0 0 0 0
0 0 0 0 0 0 0 0 0 0 0 0 0 0 0 0 0 0 0 0 0 0 0 0 0 0 0 0 0 0 0 0 0 0 0 0 0 0 0 0 0 0 0 0
0 0 0 0 0 0 0 0 0 0 0 0 0 0 0 0 0 0 0 0 0 0 0 0 0 0 0 0 0 0 0 0 0 0 0 0 0 0 0 0 0 0 0 0
0 0 0 0 0 0 0 0 0 0 0 0 0 0 0 0 0 0 0 0 0 0 0 0 0 0 0 0 0 0 0 0 0 0 0 0 0 0 0 0 0 0 0 0
0 0 0 0 0 0 0 0 0 0 0 0 0 0 0 0 0 0 0 0 0 0 0 0 0 0 0 0 0 0 0 0 0 0 0 0 0 0 0 0 0 0 0 0
0 0 0 0 0 0 0 0 0 0 0 0 0 0 0 0 0 0 0 0 0 0 0 0 0 0 0 0 0 0 0 0 0 0 0 0 0 0 0 0 0 0 0 0
0 0 0 0 0 0 0 0 0 0 0 0 0 0 0 0 0 0 0 0 0 0 0 0 0 0 0 0 0 0 0 0 0 0 0 0 0 0 0 0 0 0 0 0
0 0 0 0 0 0 0 0 0 0 0 0 0 0 0 0 0 0 0 0 0 0 0 0 0 0 0 0 0 0 0 0 0 0 0 0 0 0 0 0 0 0 0 0
0 0 0 0 0 0 0 0 0 0 0 0 0 0 0 0 0 0 0 0 0 0 0 0 0 0 0 0 0 0 0 0 0 0 0 0 0 0 0 0 0 0 0 0
0 0 0 0 0 0 0 0 0 0 0 0 0 0 0 0 0 0 0 0 0 0 0 0 0 0 0 0 0 0 0 0 0 0 0 0 0 0 0 0 0 0 0 0
0 0 0 0 0 0 0 0 0 0 0 0 0 0 0 0 0 0 0 0 0 0 0 0 0 0 0 0 0 0 0 0 0 0 0 0 0 0 0 0 0 0 0 0
0 0 0 0 0 0 0 0 0 0 0 0 0 0 0 0 0 0 0 0 0 0 0 0 0 0 0 0 0 0 0 0 0 0 0 0 0 0 0 0 0 0 0 0
0 0 0 0 0 0 0 0 0 0 0 0 0 0 0 0 0 0 0 0 0 0 0 0 0 0 0 0 0 0 0 0 0 0 0 0 0 0 0 0 0 0 0 0
0 0 0 0 0 0 0 0 0 0 0 0 0 0 0 0 0 0 0 0 0 0 0 0 0 0 0 0 0 0 0 0 0 0 0 0 0 0 0 0 0 0 0 0
0 0 0 0 0 0 0 0 0 0 0 0 0 0 0 0 0 0 0 0 0 0 0 0 0 0 0 0 0 0 0 0 0 0 0 0 0 0 0 0 0 0 0 0
0 0 0 0 0 0 0 0 0 0 0 0 0 0 0 0 0 0 0 0 0 0 0 0 0 0 0 0 0 0 0 0 0 0 0 0 0 0 0 0 0 0 0 0
0 0 0 0 0 0 0 0 0 0 0 0 0 0 0 0 0 0 0 0 0 0 0 0 0 0 0 0 0 0 0 0 0 0 0 0 0 0 0 0 0 0 0 0
0 0 0 0 0 0 0 0 0 0 0 0 0 0 0 0 0 0 0 0 0 0 0 0 0 0 0 0 0 0 0 0 0 0 0 0 0 0 0 0 0 0 0 0
0 0 0 0 0 0 0 0 0 0 0 0 0 0 0 0 0 0 0 0 0 0 0 0 0 0 0 0 0 0 0 0 0 0 0 0 0 0 0 0 0 0 0 0
0 0 0 0 0 0 0 0 0 0 0 0 0 0 0 0 0 0 0 0 0 0 0 0 0 0 0 0 0 0 0 0 0 0 0 0 0 0 0 0 0 0 0 0
0 0 0 0 0 0 0 0 0 0 0 0 0 0 0 0 0 0 0 0 0 0 0 0 0 0 0 0 0 0 0 0 0 0 0 0 0 0 0 0 0 0 0 0
0 0 0 0 0 0 0 0 0 0 0 0 0 0 0 0 0 0 0 0 0 0 0 0 0 0 0 0 0 0 0 0 0 0 0 0 0 0 0 0 0 0 0 0
Wind_Speed
1 2 4 7 7 4 3 3 5 5 2 2 7 12 13 8 5 7 7 7 7 7 6 4 4 4 4 4 4 4 4 3 3 2 2 2 2 2 2 2 2 3 2 2
2 5 7 3 3 4 4 5 7 5 1 3 6 11 11 7 6 7 7 7 7 6 4 3 3 3 4 5 5 5 5 4 4 3 3 2 2 2 2 2 2 3 3 3
7 3 2 3 3 4 6 7 7 5 4 3 5 9 7 4 3 4 4 5 5 5 5 4 3 3 4 5 6 5 5 5 4 3 2 2 1 1 1 1 2 2 3 3
5 4 2 3 4 5 7 5 5 4 2 4 1 7 8 4 5 4 4 4 4 4 4 3 3 3 3 4 4 4 4 4 4 4 3 4 3 3 4 2 2 1 2 3
4 2 2 5 5 5 4 1 3 3 3 4 2 4 10 3 5 6 4 4 5 4 3 3 3 3 3 3 3 3 3 3 3 4 4 4 4 3 2 1 3 2 2 3
4 2 3 4 2 3 2 1 1 1 1 4 5 5 9 4 5 5 4 4 4 4 3 3 2 1 1 1 1 2 3 3 3 3 4 5 5 4 3 3 3 3 2 2
3 3 2 1 1 0 2 3 2 3 2 6 2 4 10 5 3 3 4 5 4 3 3 2 2 1 1 1 1 2 2 3 3 3 4 4 5 5 5 5 4 4 3 3
2 5 3 2 4 4 4 5 6 5 5 5 2 7 7 3 2 2 3 4 4 4 3 3 2 2 1 1 2 2 3 3 3 3 4 3 4 3 3 4 4 5 4 4
4 5 1 1 1 4 3 4 3 3 0 3 6 6 7 2 3 4 4 5 5 5 4 3 3 2 2 1 1 2 3 3 3 3 3 3 3 3 3 3 3 3 3 3
3 4 3 2 1 0 2 3 3 3 3 5 6 4 5 5 4 5 5 5 5 4 4 4 3 3 2 2 2 1 2 3 3 2 2 2 3 3 3 2 3 3 3 3
1 2 3 1 3 4 3 2 2 2 3 4 4 6 3 3 2 3 4 5 5 4 5 4 4 4 3 2 2 2 2 2 2 2 2 2 2 2 2 3 3 3 2 3
2 2 3 5 3 2 3 4 5 3 4 3 4 7 2 1 3 3 4 5 5 4 4 4 4 4 4 3 3 3 3 2 2 2 2 2 2 1 2 2 2 2 2 2
2 2 1 4 1 1 1 2 3 2 2 4 5 8 2 4 4 4 4 5 5 5 5 4 4 4 4 4 4 3 3 3 3 2 2 2 1 1 2 2 2 2 2 2
3 3 6 7 5 3 3 3 3 4 4 6 9 9 6 6 6 6 5 5 5 5 5 5 4 4 4 4 4 4 4 3 3 2 2 2 2 2 2 2 2 2 2 1
3 4 5 6 4 2 4 5 5 7 7 8 8 9 9 6 6 5 5 5 6 6 6 6 5 5 5 5 5 4 4 3 2 2 2 2 3 2 2 1 2 2 1 2
2 3 2 5 4 3 6 8 8 9 8 10 10 13 7 6 3 4 5 5 6 7 7 6 6 6 5 6 5 5 5 4 2 2 2 3 2 2 2 2 1 1 1 2
3 3 2 5 3 2 9 10 9 7 7 8 11 12 5 5 4 4 4 4 5 6 6 6 6 5 5 5 5 5 5 4 3 2 2 2 2 2 2 2 1 1 2 2
5 4 2 2 1 8 8 2 7 8 9 8 8 7 5 6 5 3 2 3 4 5 6 6 6 6 5 5 5 4 4 3 2 2 3 3 3 3 3 2 2 2 2 2
5 5 3 3 4 9 7 3 4 6 7 7 9 8 6 4 3 3 2 3 4 5 5 4 4 4 4 4 4 4 3 3 2 3 3 3 3 3 2 2 2 2 2 2
2 3 4 3 5 8 6 2 2 3 6 3 4 6 4 1 3 5 3 4 4 5 5 5 4 4 4 4 4 3 4 3 3 3 4 3 3 3 3 3 3 2 2 2
3 3 5 6 7 10 6 2 3 4 6 1 3 4 3 4 4 3 3 4 4 5 6 5 5 4 4 5 4 4 4 4 5 4 4 3 3 3 3 2 2 2 1 1
8 7 7 6 7 11 2 4 6 5 1 1 1 2 2 3 3 3 3 4 5 5 6 6 5 5 5 5 4 5 5 5 5 4 4 4 3 3 2 1 2 1 1 1
7 7 6 9 8 2 3 4 1 1 1 2 2 2 2 2 3 3 3 4 4 5 5 5 5 5 5 5 4 5 6 6 5 5 4 4 3 2 2 1 1 1 1 1
4 1 3 5 7 3 2 1 2 1 2 2 2 2 1 2 2 3 3 4 4 5 5 5 4 5 6 6 5 4 5 5 4 4 4 4 3 3 2 2 1 1 1 2
4 2 3 6 5 3 3 2 3 2 2 2 2 2 2 1 2 3 3 4 4 4 4 4 4 5 6 6 6 5 4 4 4 4 4 4 3 2 2 2 2 2 2 3
4 5 6 6 4 4 4 2 2 2 3 2 1 2 2 2 2 2 3 3 3 4 4 4 4 5 5 5 6 5 4 3 3 4 4 3 3 3 2 2 3 4 4 4
Wind_Direction
101 113 217 218 211 218 196 216 256 261 258 258 256 268 278 280 267 264 264 264 264 261 261 241 218 202 188 185 181 185 187 187 169 165 170 185 204 206 201 196 185 174 167 163
77 237 235 216 204 214 223 244 259 280 255 239 274 276 273 262 247 244 252 260 265 275 285 260 221 198 194 192 190 188 191 191 191 189 182 190 182 200 200 188 187 179 175 170
200 237 198 179 202 218 236 227 239 257 310 283 303 293 273 267 246 258 256 257 259 256 263 261 235 212 200 199 196 197 195 195 198 186 159 129 109 90 182 201 210 199 180 174
235 256 202 202 219 206 246 230 225 241 286 289 329 293 285 274 291 282 272 271 272 276 274 261 238 226 214 213 199 195 191 192 191 180 181 179 187 202 213 210 207 201 187 185
240 213 194 220 230 197 226 204 205 224 226 279 237 247 284 300 288 287 277 273 280 282 279 274 250 231 224 202 191 191 186 191 192 189 193 197 206 210 193 177 188 197 201 195
248 225 208 226 238 199 187 68 53 69 118 267 231 207 278 254 253 288 295 289 290 300 296 285 282 255 226 175 181 178 183 198 200 200 203 206 210 203 188 198 201 205 207 208
290 254 245 180 122 86 137 116 19 346 325 252 211 210 253 261 269 270 296 306 307 312 318 312 312 292 262 202 210 203 199 213 209 209 217 218 217 209 205 205 205 205 208 217
252 278 234 208 193 189 196 171 174 208 238 276 252 235 253 266 308 331 324 320 339 342 335 323 300 279 258 232 218 217 221 229 221 219 227 225 225 221 220 213 209 209 214 216
200 256 304 241 241 164 172 206 190 151 241 276 260 270 294 330 343 357 356 357 352 345 335 328 330 335 324 289 251 230 226 237 233 228 230 227 224 229 233 224 216 218 220 216
178 253 281 293 54 247 173 159 132 163 196 254 271 257 264 305 318 342 352 343 333 344 339 336 333 333 338 333 317 280 248 249 250 239 234 244 238 238 236 225 221 224 226 219
155 206 292 312 202 202 168 173 170 180 200 203 262 266 239 247 293 308 313 326 330 334 333 335 334 333 335 343 344 332 314 303 293 270 254 252 248 251 237 231 237 236 234 225
189 166 254 248 245 223 189 187 168 189 236 222 247 265 317 331 326 322 318 329 333 330 329 334 339 345 347 344 343 342 338 325 303 293 281 264 267 274 262 256 257 249 246 239
160 161 300 328 331 4 252 225 200 193 179 208 227 260 333 10 353 340 328 328 331 331 338 344 351 348 342 338 338 335 330 321 322 318 301 291 293 287 282 284 289 274 258 256
157 184 201 222 235 198 239 249 205 179 207 230 232 256 291 319 322 321 323 319 324 328 338 342 342 339 336 333 334 329 322 324 327 326 315 298 289 280 284 297 303 291 282 272
157 215 229 252 265 224 235 233 204 208 218 226 247 250 267 283 286 301 313 323 332 331 336 336 335 335 334 333 335 331 323 326 328 325 315 303 309 309 302 302 304 303 302 288
170 214 227 262 255 242 261 248 223 228 234 240 261 268 267 279 283 300 307 317 319 319 324 330 334 336 333 330 328 329 325 323 326 315 306 318 325 324 316 310 304 304 306 298
186 171 192 257 284 320 264 236 209 214 217 208 236 256 291 290 283 279 291 303 302 310 318 323 325 325 325 323 323 318 317 325 331 321 322 333 330 316 313 313 312 291 281 282
183 175 194 248 50 239 243 191 191 214 235 226 244 267 277 270 280 279 289 298 309 318 319 323 327 328 330 330 330 326 331 335 336 334 332 333 328 317 322 326 309 302 295 275
200 187 191 191 236 267 281 239 184 207 253 232 241 263 281 296 298 283 337 335 315 318 322 322 324 327 334 340 338 339 344 353 354 340 330 324 318 313 316 305 299 304 300 289
177 175 185 193 218 239 248 242 190 170 262 253 221 246 266 285 274 275 337 343 335 339 341 340 341 345 350 350 348 351 350 353 339 326 319 317 312 304 297 293 298 306 299 295
173 190 203 211 234 256 257 259 135 189 259 292 223 237 229 231 247 293 345 346 346 344 346 348 349 350 349 352 356 352 349 336 328 329 323 317 309 300 294 300 308 312 306 309
187 186 202 192 222 251 242 135 183 228 301 240 252 256 247 271 304 324 339 339 342 344 348 349 349 346 349 356 355 345 338 334 336 333 326 318 314 312 310 303 308 313 285 273
205 197 192 198 217 236 165 191 239 344 280 282 275 286 265 269 292 315 325 330 336 340 343 345 345 343 346 351 352 336 332 338 335 331 324 317 318 319 313 295 294 308 286 260
251 257 200 240 253 247 243 258 324 322 278 286 288 292 290 279 293 308 314 325 335 339 339 341 343 341 337 343 343 334 330 333 330 323 321 321 321 323 324 313 291 270 260 261
228 186 219 251 273 301 257 252 274 281 289 297 328 326 301 261 281 292 303 315 322 328 333 335 333 327 326 332 333 335 335 335 330 323 319 320 317 313 315 313 293 275 260 246
192 192 202 236 240 237 263 282 292 276 278 274 288 316 321 286 273 292 296 307 316 320 325 326 322 318 319 324 324 329 332 330 323 320 321 319 316 313 309 309 316 309 303 304